When you browse on this site, cookies collect data to enhance your experience and personalize the content and advertising you see.
Visit our Privacy Policy to learn more. By continuing to use the site, you agree to this use of cookies and data.
  • In United Kingdom
  • List of Countries
  • For 7 days
  • Water Temperature
  • Weather Map
  • Weather Widgets
  • user-avatar
    Login

    Hourly Weather Zhlobin

    Today, 17 September, Tuesday

    Time Temperature Precipitation Wind Pressure Humidity
    00:00 +10°C° 0 mm 4 mps 743 mmHg 75%
    01:00 +8°C° 0 mm 4 mps 743 mmHg 77%
    02:00 +8°C° 0 mm 4 mps 743 mmHg 80%
    03:00 +8°C° 0 mm 4 mps 743 mmHg 82%
    04:00 +8°C° 0 mm 4 mps 743 mmHg 84%
    05:00 +8°C° 0 mm 5 mps 743 mmHg 86%
    06:00 +8°C° 0 mm 5 mps 743 mmHg 81%
    07:00 +9°C° 0 mm 5 mps 743 mmHg 77%
    08:00 +9°C° 0 mm 6 mps 743 mmHg 72%
    09:00 +11°C° 0 mm 6 mps 743 mmHg 66%
    10:00 +12°C° 0 mm 7 mps 743 mmHg 60%
    11:00 +14°C° 0 mm 7 mps 743 mmHg 54%
    12:00 +15°C° 0.1 mm 7 mps 742 mmHg 50%
    13:00 +15°C° 0.1 mm 7 mps 742 mmHg 46%
    14:00 +16°C° 0.1 mm 7 mps 742 mmHg 43%
    15:00 +15°C° 0 mm 6 mps 741 mmHg 45%
    16:00 +15°C° 0 mm 5 mps 741 mmHg 48%
    17:00 +14°C° 0 mm 4 mps 741 mmHg 50%
    18:00 +13°C° 0.1 mm 4 mps 741 mmHg 58%
    19:00 +12°C° 0.1 mm 4 mps 741 mmHg 67%
    20:00 +10°C° 0.1 mm 4 mps 741 mmHg 75%
    21:00 +10°C° 0.7 mm 4 mps 740 mmHg 79%
    22:00 +10°C° 0.7 mm 4 mps 739 mmHg 83%
    23:00 +10°C° 0.7 mm 4 mps 739 mmHg 86%

    Tomorrow, 18 September, Wednesday

    Time Temperature Precipitation Wind Pressure Humidity
    00:00 +8°C° 0.1 mm 4 mps 738 mmHg 88%
    01:00 +7°C° 0.1 mm 4 mps 738 mmHg 90%
    02:00 +8°C° 0.1 mm 3 mps 738 mmHg 91%
    03:00 +7°C° 0.6 mm 4 mps 737 mmHg 92%
    04:00 +6°C° 0.6 mm 4 mps 737 mmHg 93%
    05:00 +6°C° 0.6 mm 4 mps 736 mmHg 93%
    06:00 +6°C° 1.3 mm 4 mps 736 mmHg 92%
    07:00 +6°C° 1.3 mm 5 mps 737 mmHg 90%
    08:00 +6°C° 1.3 mm 5 mps 737 mmHg 89%
    09:00 +7°C° 0.4 mm 6 mps 737 mmHg 85%
    10:00 +8°C° 0.4 mm 6 mps 738 mmHg 80%
    11:00 +8°C° 0.4 mm 7 mps 738 mmHg 76%
    12:00 +9°C° 0.3 mm 7 mps 738 mmHg 75%
    13:00 +9°C° 0.3 mm 7 mps 739 mmHg 73%
    14:00 +9°C° 0.3 mm 7 mps 739 mmHg 71%
    15:00 +8°C° 0.2 mm 7 mps 740 mmHg 75%
    16:00 +8°C° 0.2 mm 6 mps 740 mmHg 79%
    17:00 +7°C° 0.2 mm 5 mps 741 mmHg 82%
    18:00 +6°C° 0 mm 5 mps 741 mmHg 85%
    19:00 +6°C° 0 mm 4 mps 742 mmHg 88%
    20:00 +6°C° 0 mm 4 mps 743 mmHg 90%
    21:00 +6°C° 0 mm 4 mps 743 mmHg 90%
    22:00 +6°C° 0 mm 4 mps 744 mmHg 89%
    23:00 +6°C° 0 mm 4 mps 745 mmHg 89%

    Day after tomorrow, 19 September, Thursday

    Time Temperature Precipitation Wind Pressure Humidity
    00:00 +6°C° 0 mm 4 mps 745 mmHg 91%
    01:00 +5°C° 0 mm 4 mps 745 mmHg 93%
    02:00 +5°C° 0 mm 4 mps 746 mmHg 95%
    03:00 +5°C° 0 mm 4 mps 746 mmHg 95%
    04:00 +5°C° 0 mm 5 mps 746 mmHg 95%
    05:00 +6°C° 0 mm 5 mps 747 mmHg 95%
    06:00 +6°C° 0 mm 5 mps 747 mmHg 92%
    07:00 +7°C° 0 mm 5 mps 747 mmHg 90%
    08:00 +7°C° 0 mm 5 mps 748 mmHg 88%
    09:00 +7°C° 0 mm 5 mps 748 mmHg 86%
    10:00 +7°C° 0 mm 5 mps 748 mmHg 84%
    11:00 +8°C° 0 mm 5 mps 749 mmHg 82%
    12:00 +8°C° 0 mm 5 mps 749 mmHg 79%
    13:00 +10°C° 0 mm 4 mps 749 mmHg 76%
    14:00 +10°C° 0 mm 4 mps 749 mmHg 72%
    15:00 +10°C° 0 mm 4 mps 749 mmHg 72%
    16:00 +10°C° 0 mm 3 mps 749 mmHg 72%
    17:00 +10°C° 0 mm 3 mps 749 mmHg 72%
    18:00 +9°C° 0 mm 2 mps 749 mmHg 79%
    19:00 +8°C° 0 mm 2 mps 749 mmHg 85%
    20:00 +6°C° 0 mm 2 mps 750 mmHg 91%
    21:00 +6°C° 0 mm 2 mps 750 mmHg 92%
    22:00 +6°C° 0 mm 2 mps 749 mmHg 93%
    23:00 +5°C° 0 mm 2 mps 749 mmHg 93%

    20 September, Friday

    Time Temperature Precipitation Wind Pressure Humidity
    00:00 +5°C° 0 mm 2 mps 749 mmHg 93%
    01:00 +5°C° 0 mm 2 mps 749 mmHg 93%
    02:00 +6°C° 0 mm 2 mps 749 mmHg 93%
    03:00 +4°C° 0 mm 3 mps 749 mmHg 92%
    04:00 +4°C° 0 mm 3 mps 748 mmHg 92%
    05:00 +4°C° 0 mm 3 mps 748 mmHg 91%
    06:00 +5°C° 0 mm 4 mps 748 mmHg 89%
    07:00 +5°C° 0 mm 5 mps 748 mmHg 86%
    08:00 +5°C° 0 mm 5 mps 748 mmHg 84%
    09:00 +4°C° 0.2 mm 6 mps 749 mmHg 85%
    10:00 +4°C° 0.2 mm 6 mps 749 mmHg 86%
    11:00 +4°C° 0.2 mm 6 mps 749 mmHg 87%
    12:00 +5°C° 0.2 mm 6 mps 749 mmHg 84%
    13:00 +5°C° 0.2 mm 6 mps 749 mmHg 82%
    14:00 +5°C° 0.2 mm 6 mps 749 mmHg 79%
    15:00 +6°C° 0.1 mm 5 mps 749 mmHg 78%
    16:00 +6°C° 0.1 mm 5 mps 750 mmHg 77%
    17:00 +7°C° 0.1 mm 4 mps 750 mmHg 75%
    18:00 +6°C° 0 mm 4 mps 750 mmHg 80%
    19:00 +5°C° 0 mm 4 mps 751 mmHg 84%
    20:00 +4°C° 0 mm 3 mps 751 mmHg 89%
    21:00 +3°C° 0 mm 3 mps 751 mmHg 90%
    22:00 +3°C° 0 mm 4 mps 752 mmHg 92%
    23:00 +3°C° 0 mm 4 mps 752 mmHg 93%

    21 September, Saturday

    Time Temperature Precipitation Wind Pressure Humidity
    00:00 +1°C° 0 mm 4 mps 752 mmHg 94%
    01:00 +1°C° 0 mm 4 mps 753 mmHg 94%
    02:00 0°C° 0 mm 4 mps 753 mmHg 94%
    03:00 +1°C° 0 mm 3 mps 754 mmHg 95%
    04:00 +1°C° 0 mm 3 mps 754 mmHg 95%
    05:00 0°C° 0 mm 3 mps 754 mmHg 95%
    06:00 +2°C° 0 mm 3 mps 755 mmHg 91%
    07:00 +3°C° 0 mm 4 mps 755 mmHg 86%
    08:00 +4°C° 0 mm 4 mps 755 mmHg 81%
    09:00 +5°C° 0 mm 4 mps 756 mmHg 72%
    10:00 +7°C° 0 mm 4 mps 756 mmHg 63%
    11:00 +8°C° 0 mm 4 mps 756 mmHg 54%
    12:00 +10°C° 0 mm 4 mps 756 mmHg 50%
    13:00 +10°C° 0 mm 4 mps 756 mmHg 47%
    14:00 +11°C° 0 mm 4 mps 756 mmHg 43%
    15:00 +11°C° 0 mm 4 mps 756 mmHg 47%
    16:00 +10°C° 0 mm 3 mps 756 mmHg 50%
    17:00 +10°C° 0 mm 3 mps 756 mmHg 53%
    18:00 +9°C° 0 mm 3 mps 756 mmHg 58%
    19:00 +8°C° 0 mm 3 mps 756 mmHg 62%
    20:00 +8°C° 0 mm 3 mps 756 mmHg 66%
    21:00 +7°C° 0.1 mm 4 mps 755 mmHg 72%
    22:00 +7°C° 0.1 mm 5 mps 755 mmHg 78%
    23:00 +7°C° 0.1 mm 5 mps 754 mmHg 84%

    22 September, Sunday

    Time Temperature Precipitation Wind Pressure Humidity
    00:00 +7°C° 0.1 mm 5 mps 754 mmHg 85%
    01:00 +7°C° 0.1 mm 5 mps 754 mmHg 86%
    02:00 +8°C° 0.1 mm 6 mps 753 mmHg 87%
    03:00 +8°C° 0 mm 6 mps 753 mmHg 87%
    04:00 +8°C° 0 mm 6 mps 753 mmHg 87%
    05:00 +9°C° 0 mm 6 mps 753 mmHg 87%
    06:00 +9°C° 0 mm 6 mps 753 mmHg 86%
    07:00 +10°C° 0 mm 6 mps 753 mmHg 85%
    08:00 +10°C° 0 mm 7 mps 753 mmHg 84%
    09:00 +12°C° 0 mm 7 mps 753 mmHg 77%
    10:00 +15°C° 0 mm 7 mps 753 mmHg 70%
    11:00 +16°C° 0 mm 8 mps 752 mmHg 63%
    12:00 +17°C° 0 mm 8 mps 752 mmHg 60%
    13:00 +18°C° 0 mm 8 mps 752 mmHg 57%
    14:00 +20°C° 0 mm 8 mps 751 mmHg 54%
    15:00 +18°C° 0 mm 7 mps 752 mmHg 57%
    16:00 +17°C° 0 mm 7 mps 752 mmHg 60%
    17:00 +17°C° 0 mm 6 mps 752 mmHg 63%
    18:00 +16°C° 0 mm 5 mps 752 mmHg 69%
    19:00 +15°C° 0 mm 5 mps 753 mmHg 75%
    20:00 +14°C° 0 mm 4 mps 753 mmHg 80%
    21:00 +13°C° 0 mm 4 mps 754 mmHg 81%
    22:00 +13°C° 0 mm 4 mps 754 mmHg 81%
    23:00 +12°C° 0 mm 3 mps 755 mmHg 81%
    Show more